Date,TemperatureHighF,TemperatureAvgF,TemperatureLowF,DewpointHighF,DewpointAvgF,DewpointLowF,HumidityHigh,HumidityAvg,HumidityLow,PressureMaxIn,PressureMinIn,WindSpeedMaxMPH,WindSpeedAvgMPH,GustSpeedMaxMPH,PrecipitationSumIn
2013-1-1,79.2,65.2,54.3,66.2,60.1,53.9,100,86,56,30.21,30.03,10,1,17,0.00
2013-1-2,83.8,68.1,58.8,75.5,64.6,58.6,100,90,57,30.07,29.98,7,1,11,0.02
2013-1-3,85.8,68.3,60.1,75.8,66.1,59.8,100,93,60,30.14,30.00,9,1,15,0.04
2013-1-4,67.5,61.7,58.5,67.0,61.5,56.4,99,99,99,30.26,30.12,5,2,11,0.04
2013-1-5,77.5,67.4,59.0,70.7,65.1,58.7,100,92,74,30.28,29.92,7,1,11,0.00
2013-1-6,84.9,70.4,59.5,78.2,68.7,59.3,100,95,68,29.93,29.78,8,1,14,0.00
2013-1-7,71.1,65.9,62.1,68.4,65.3,60.5,100,98,85,29.93,29.83,9,2,15,0.02
2013-1-8,86.2,71.5,61.2,76.9,68.5,60.9,100,91,66,29.94,29.83,7,2,13,0.00
2013-1-9,87.3,76.1,67.3,80.7,71.6,66.8,100,87,54,30.00,29.89,11,3,17,0.00
2013-1-10,86.4,74.3,68.2,77.2,69.7,57.1,100,87,56,30.02,29.91,11,4,19,0.00
2013-1-11,84.2,73.1,62.1,76.2,68.0,61.8,100,87,49,30.00,29.85,11,2,19,0.00
2013-1-12,83.5,72.6,64.9,75.1,69.1,64.7,100,90,62,29.91,29.79,9,2,16,0.00
2013-1-13,85.3,72.6,64.4,74.8,68.4,62.5,100,88,49,29.90,29.78,6,1,11,0.00
2013-1-14,85.1,70.7,62.1,72.0,64.7,58.4,100,84,46,29.92,29.83,8,1,17,0.00
2013-1-15,84.2,70.2,60.3,73.0,65.4,60.0,100,86,55,29.88,29.77,6,1,11,0.00
2013-1-16,85.3,71.7,63.1,73.2,65.6,61.3,100,84,47,29.84,29.72,7,1,11,0.00
2013-1-17,75.4,63.8,57.7,75.1,62.3,52.3,100,95,81,29.88,29.74,10,2,20,0.05
2013-1-18,66.9,56.4,42.3,62.4,51.8,38.8,100,85,63,30.05,29.87,8,3,16,0.00
2013-1-19,73.8,64.8,53.6,67.0,61.7,53.3,100,90,74,30.00,29.85,9,2,17,0.02
2013-1-20,76.5,67.6,61.2,69.0,65.0,60.7,100,92,73,29.90,29.76,5,1,9,0.00
2013-1-21,79.5,66.3,59.4,72.7,64.0,59.1,100,93,66,29.84,29.74,7,1,15,0.01
2013-1-22,68.4,60.2,51.6,60.4,46.9,30.4,100,66,27,30.02,29.81,8,1,12,0.00
2013-1-23,75.9,57.6,45.0,49.9,40.9,24.3,97,62,15,30.10,29.99,4,1,10,0.00
2013-1-24,78.3,59.4,43.9,56.3,48.6,41.0,100,74,28,30.08,29.97,5,1,14,0.00
2013-1-25,79.0,61.6,49.3,64.1,52.5,46.5,100,77,32,30.05,29.92,7,1,12,0.01
2013-1-26,79.7,62.6,49.1,62.1,55.0,47.3,100,81,32,30.02,29.90,6,1,11,0.00
2013-1-27,79.9,65.9,52.5,66.0,56.4,50.1,100,76,37,30.04,29.93,8,2,14,0.01
2013-1-28,83.1,70.3,60.6,69.7,62.5,57.2,100,79,42,30.05,29.93,10,2,15,0.00
2013-1-29,84.7,71.1,59.9,73.3,66.4,59.6,100,87,53,29.97,29.82,10,2,18,0.00
2013-1-30,82.2,72.3,64.8,72.2,68.6,59.3,100,89,65,29.83,29.66,14,4,26,0.00
2013-1-31,72.1,61.2,47.3,71.5,49.0,20.0,99,70,17,29.98,29.66,8,2,17,0.09
2013-2-1,71.8,55.2,42.6,46.7,35.2,10.4,93,57,10,30.10,29.95,8,1,13,0.00
2013-2-2,75.6,58.1,43.2,52.0,45.5,33.1,100,70,27,30.03,29.88,8,1,12,0.02
2013-2-3,75.4,59.0,46.6,56.3,51.6,46.3,100,80,43,29.95,29.83,7,1,14,0.00
2013-2-4,75.6,56.7,44.2,59.1,46.2,31.2,100,75,22,29.89,29.77,7,1,11,0.01
2013-2-5,81.7,62.8,47.3,59.3,52.4,44.8,100,73,36,29.83,29.73,7,1,10,0.00
2013-2-6,85.1,67.7,54.9,65.3,60.1,54.6,100,80,43,29.85,29.75,8,1,12,0.00
2013-2-7,83.1,70.4,61.3,71.0,65.4,60.7,99,86,49,29.80,29.63,11,3,22,0.05
2013-2-8,84.4,71.3,59.0,70.4,64.7,56.3,100,83,40,29.82,29.63,10,2,21,0.00
2013-2-9,79.7,66.2,54.9,62.3,57.3,53.6,100,76,43,29.92,29.80,8,2,14,0.00
2013-2-10,81.9,69.9,60.8,65.4,62.9,59.0,100,80,47,29.98,29.85,12,4,21,0.00
2013-2-11,85.5,70.4,59.9,70.2,65.2,59.6,100,86,51,29.93,29.81,9,2,17,0.00
2013-2-12,84.2,71.7,61.9,77.1,68.9,61.6,99,92,67,29.84,29.69,11,2,18,0.00
2013-2-13,84.2,73.5,62.1,80.2,71.8,61.8,100,95,76,29.73,29.60,14,4,24,0.06
2013-2-14,68.4,63.1,60.4,67.5,62.5,60.2,100,98,89,29.77,29.66,8,1,17,0.30
2013-2-15,75.6,63.4,58.5,69.0,61.4,58.2,100,94,62,29.81,29.68,4,0,9,0.12
2013-2-16,71.6,59.9,52.3,60.9,52.2,38.4,99,78,46,29.85,29.67,12,3,24,0.02
2013-2-17,59.7,49.5,40.5,39.8,26.4,13.7,83,44,17,30.08,29.85,8,2,19,0.06
2013-2-18,70.3,54.5,37.4,51.6,41.8,27.3,100,67,34,30.09,29.94,13,3,18,0.06
2013-2-19,80.4,64.9,50.5,66.0,58.0,50.3,100,82,47,29.95,29.82,11,2,17,0.09
2013-2-20,85.3,68.1,58.1,73.5,63.6,57.8,100,87,53,29.85,29.73,7,1,12,0.01
2013-2-21,84.6,69.5,58.8,71.8,64.5,55.1,100,86,54,29.85,29.71,8,2,14,0.04
2013-2-22,86.4,72.9,61.5,76.2,68.3,61.3,100,87,58,29.81,29.71,10,2,16,0.00
2013-2-23,84.9,74.5,67.6,79.8,72.8,67.4,100,95,75,29.75,29.63,12,3,21,0.00
2013-2-24,88.5,75.2,67.8,78.6,72.1,67.4,100,91,62,29.71,29.63,9,2,15,0.00
2013-2-25,85.1,74.1,58.8,78.1,71.1,58.6,100,91,65,29.64,29.51,12,2,20,0.00
2013-2-26,79.3,72.7,64.8,79.1,72.2,64.5,100,98,86,29.64,29.45,14,3,25,0.21
2013-2-27,81.1,67.5,57.7,70.8,62.4,57.3,100,86,53,29.73,29.61,5,1,10,0.01
2013-2-28,78.3,65.0,54.9,67.9,56.9,51.6,100,78,43,29.75,29.66,7,1,13,0.00
2013-3-1,67.5,59.1,54.5,57.8,49.1,41.3,100,71,46,29.77,29.65,7,2,14,0.00
2013-3-2,63.3,55.8,48.6,46.6,43.4,38.7,84,64,47,29.81,29.73,8,2,24,0.00
2013-3-3,60.4,51.2,41.2,44.0,39.8,33.7,81,65,49,29.91,29.72,9,2,21,0.00
2013-3-4,72.0,54.4,40.3,49.3,40.3,27.2,100,66,20,29.98,29.85,5,1,11,0.00
2013-3-5,77.4,60.2,43.5,62.2,53.2,43.3,100,81,43,29.91,29.79,8,2,15,0.00
2013-3-6,69.1,61.3,50.4,66.1,50.6,36.1,99,71,32,29.88,29.71,10,3,21,0.02
2013-3-7,70.2,54.5,43.7,49.1,40.5,32.3,100,63,26,29.97,29.87,4,0,13,0.00
2013-3-8,80.1,59.2,43.5,52.8,44.3,24.6,99,68,14,29.98,29.85,4,0,11,0.00
2013-3-9,78.6,63.7,48.6,57.1,48.7,38.7,100,64,26,29.95,29.84,8,1,14,0.00
2013-3-10,79.3,67.5,57.2,60.7,56.0,50.2,100,70,41,29.91,29.77,14,1,23,0.00
2013-3-11,80.2,68.3,59.2,66.2,60.9,55.0,100,80,46,29.84,29.65,9,1,17,0.00
2013-3-12,70.3,65.2,55.6,69.0,63.7,54.8,100,95,73,29.80,29.60,8,1,21,0.28
2013-3-13,77.5,62.7,52.7,55.9,43.8,17.3,99,60,11,29.93,29.77,2,0,15,0.00
2013-3-14,72.0,59.1,50.9,53.2,35.3,10.7,100,50,10,30.00,29.89,3,0,9,0.04
2013-3-15,75.4,58.2,43.3,52.6,41.0,17.1,100,63,17,30.03,29.88,6,0,11,0.04
2013-3-16,79.9,61.1,45.9,56.6,50.1,42.4,100,73,29,29.93,29.81,8,1,15,0.02
2013-3-17,73.6,58.7,41.2,62.7,53.7,33.7,100,85,51,29.99,29.79,7,1,11,0.40
2013-3-18,77.9,68.1,60.4,72.7,66.3,60.0,100,94,74,29.95,29.77,9,1,21,0.05
2013-3-19,87.4,72.0,63.9,73.8,66.8,63.4,100,86,50,29.92,29.79,6,0,12,0.02
2013-3-20,77.4,64.5,41.2,70.0,57.8,33.7,100,80,51,30.10,29.82,10,1,18,0.22
2013-3-21,74.5,62.3,49.5,60.2,41.4,7.7,100,59,10,30.00,29.89,5,1,12,0.01
2013-3-22,77.5,63.2,46.6,73.8,57.8,44.3,100,84,48,30.01,29.89,8,1,12,0.07
2013-3-23,85.5,73.6,62.6,80.9,71.9,62.3,100,95,75,29.98,29.80,10,1,20,0.02
2013-3-24,82.8,74.3,69.3,80.9,74.0,67.7,100,99,93,29.85,29.68,13,2,21,0.13
2013-3-25,72.3,65.3,51.8,70.6,51.3,30.1,100,67,22,30.07,29.77,8,1,20,0.14
2013-3-26,63.9,56.6,49.8,53.8,40.7,29.6,100,58,34,30.20,30.05,11,0,22,0.07
2013-3-27,64.6,56.6,46.0,44.1,35.4,25.5,93,48,24,30.34,30.23,2,0,14,0.14
2013-3-28,77.0,56.7,41.7,47.9,37.2,12.5,100,60,10,30.32,30.19,7,0,18,0.01
2013-3-29,78.8,61.7,46.8,55.1,41.9,19.8,100,59,12,30.34,30.19,10,1,17,0.06
2013-3-30,79.3,60.6,51.1,58.2,52.3,44.8,100,79,30,30.26,30.20,7,1,14,0.00
2013-3-31,82.4,68.6,55.9,64.5,58.8,54.9,100,75,41,30.19,30.02,10,1,15,0.01
2013-4-1,85.5,72.3,62.6,74.6,66.9,62.3,99,86,52,30.05,29.97,3,0,12,0.01
2013-4-2,86.9,73.5,64.6,76.5,65.1,59.4,100,79,43,30.10,30.00,4,0,8,0.01
2013-4-3,87.8,76.1,63.0,76.0,68.3,61.1,100,79,41,30.08,29.93,9,2,16,0.00
2013-4-4,76.6,69.6,65.7,72.6,69.3,61.6,99,99,99,30.11,29.87,10,2,16,1.49
2013-4-5,78.3,69.5,62.4,74.2,65.6,57.3,100,89,52,29.99,29.83,10,1,17,0.06
2013-4-6,79.2,67.9,59.2,65.1,60.5,54.5,100,80,43,30.11,29.99,2,0,7,0.01
2013-4-7,85.5,71.7,60.8,68.6,61.8,55.2,100,75,41,30.15,30.04,6,0,11,0.01
2013-4-8,86.2,73.9,63.0,69.3,62.0,50.4,100,71,31,30.13,30.02,8,1,16,0.01
2013-4-9,85.6,73.9,63.0,72.4,65.0,58.6,100,77,41,30.15,30.05,9,3,14,0.01
2013-4-10,91.4,75.1,64.0,72.2,67.8,62.1,100,81,50,30.11,29.96,12,1,22,0.00
2013-4-11,87.3,77.6,70.0,78.4,73.2,65.0,100,88,61,29.99,29.82,8,2,17,0.04
2013-4-12,83.1,77.2,51.6,80.7,75.8,35.5,99,96,54,30.13,29.85,15,2,15,3.17
2013-4-13,104.4,77.5,69.6,78.8,71.4,64.4,99,84,30,30.00,29.88,10,2,10,0.11
2013-4-14,88.7,77.8,69.6,77.4,72.2,65.5,99,85,56,30.04,29.87,21,7,21,0.00
2013-4-15,95.0,79.1,68.2,75.2,69.4,65.1,99,75,44,30.10,29.96,11,3,11,0.24
2013-4-16,91.8,79.7,70.0,77.7,71.6,65.8,99,79,46,30.16,29.93,13,4,13,0.00
2013-4-17,88.2,77.8,68.0,75.7,66.6,56.7,99,72,39,30.16,29.72,15,5,15,0.00
2013-4-18,91.6,78.1,67.8,75.9,70.5,41.4,99,80,44,30.07,29.73,15,5,15,0.02
2013-4-19,89.1,79.0,70.7,80.4,72.3,32.7,99,83,48,30.10,29.94,21,6,21,0.20
2013-4-20,79.5,73.3,66.9,74.7,70.2,32.9,99,91,70,30.36,29.99,11,3,11,0.22
2013-4-21,88.7,73.3,61.9,73.8,67.9,61.3,99,86,50,30.16,30.01,11,4,11,0.02
2013-4-22,85.5,73.8,68.2,75.7,70.7,37.6,99,91,63,30.29,29.98,11,3,11,0.65
2013-4-23,86.4,74.9,55.4,71.6,66.4,50.7,99,78,45,30.28,30.02,15,5,15,0.00
2013-4-24,89.2,74.0,61.9,69.4,64.7,57.2,99,77,36,30.17,30.08,11,4,11,0.00
2013-4-25,90.3,76.3,63.5,72.1,67.6,58.1,99,78,36,30.23,30.01,12,3,12,0.00
2013-4-26,88.7,77.0,65.3,72.7,65.9,58.1,99,72,37,30.27,30.01,13,3,13,0.00
2013-4-27,86.0,76.8,64.8,73.6,66.8,59.9,99,73,47,30.24,30.05,14,5,14,0.00
2013-4-28,86.4,76.4,65.7,70.0,65.6,59.5,99,72,42,30.14,29.97,15,5,15,0.00
2013-4-29,90.0,77.1,67.1,73.9,67.7,61.2,99,75,46,30.05,29.87,14,4,14,0.00
2013-4-30,88.2,76.4,63.0,73.2,70.4,57.9,99,84,53,30.11,29.92,15,4,15,0.00
2013-5-1,75.6,70.3,67.1,75.0,69.9,62.8,99,99,99,30.07,29.93,11,4,11,1.10
2013-5-2,84.9,71.9,67.1,76.8,71.0,53.4,99,97,89,30.14,29.84,9,3,9,0.04
2013-5-3,87.8,75.5,66.9,78.3,70.7,62.2,99,87,58,30.10,29.73,15,3,15,0.01
2013-5-4,84.0,73.7,66.0,76.8,70.1,65.5,99,89,68,29.84,29.71,18,4,18,0.02
2013-5-5,88.5,70.7,62.6,70.5,58.8,45.0,99,71,30,30.01,29.82,17,6,17,0.25
2013-5-6,80.4,70.5,61.9,70.2,61.3,55.8,99,76,44,30.06,29.80,14,3,14,0.02
2013-5-7,81.3,69.6,58.8,65.3,60.4,55.4,99,76,44,30.09,29.85,14,3,14,0.05
2013-5-8,84.9,71.1,58.8,69.4,62.3,-9.4,99,78,38,30.17,29.99,12,-2,12,0.08
2013-5-9,88.5,74.9,61.5,70.9,63.2,52.0,99,72,31,30.19,30.09,11,3,11,0.02
2013-5-10,92.7,77.5,65.1,76.3,69.2,63.3,99,80,41,30.17,30.02,14,4,14,0.02
2013-5-11,91.0,79.5,70.9,80.4,73.6,67.1,99,85,47,30.09,30.01,14,4,14,0.00
2013-5-12,90.3,80.0,73.0,81.3,73.8,67.8,99,84,50,30.08,29.96,14,4,14,0.00
2013-5-13,87.8,75.7,63.9,76.1,63.9,47.8,99,72,33,30.16,30.03,14,3,14,0.02
2013-5-14,87.1,72.5,56.5,61.0,50.6,28.9,96,54,13,30.24,30.12,12,3,12,0.00
2013-5-15,86.5,74.4,62.2,66.0,58.8,46.0,98,63,27,30.23,30.08,12,4,12,0.01
2013-5-16,88.7,75.4,64.2,70.0,62.2,42.8,99,69,22,30.15,30.01,11,3,11,0.01
2013-5-17,92.7,78.6,66.9,70.3,66.4,56.8,99,70,33,30.11,30.04,11,3,11,0.09
2013-5-18,94.8,80.0,69.8,77.5,68.8,59.5,99,73,37,30.13,30.03,11,3,11,0.02
2013-5-19,93.4,80.1,68.7,75.4,69.2,2.3,99,73,40,30.12,29.99,11,2,11,0.00
2013-5-20,94.3,77.0,68.0,75.2,71.1,63.5,99,85,42,30.10,29.96,26,3,26,1.44
2013-5-21,91.2,75.7,68.2,77.5,71.6,65.8,99,89,45,30.05,29.93,14,3,14,0.44
2013-5-22,91.4,78.5,68.7,82.0,72.4,67.3,99,84,50,29.99,29.91,11,3,11,0.08
2013-5-23,93.4,80.6,70.2,80.1,72.8,63.9,99,81,39,30.04,29.93,13,2,13,0.00
2013-5-24,95.5,82.5,71.6,79.9,71.7,59.7,99,74,32,30.10,30.00,13,3,13,0.00
2013-5-25,91.0,80.5,71.2,76.5,67.3,56.8,99,68,33,30.19,30.06,31,5,31,0.00
2013-5-26,87.6,77.0,66.0,68.9,61.4,45.9,99,64,27,30.23,30.11,13,4,13,0.00
2013-5-27,89.2,78.1,66.7,71.2,64.6,56.7,99,67,35,30.20,30.05,13,6,13,0.00
2013-5-28,89.4,78.7,70.9,75.6,72.2,68.2,99,82,54,30.16,30.03,22,7,22,0.00
2013-5-29,86.4,77.9,71.6,77.2,72.8,69.6,99,86,59,30.11,30.03,24,7,24,0.01
2013-5-30,87.3,78.8,72.3,78.1,72.9,69.1,99,84,59,30.09,30.00,25,9,25,0.00
2013-5-31,85.8,78.2,72.7,78.1,74.8,72.3,99,90,71,30.10,30.01,17,7,17,0.02
2013-6-1,90.0,78.1,72.9,80.8,75.3,72.5,99,92,65,30.06,29.96,12,4,12,0.37
2013-6-2,89.6,79.2,72.9,84.0,76.5,57.6,99,92,68,30.05,29.92,11,3,11,0.60
2013-6-3,84.6,77.7,73.9,82.6,77.2,55.8,99,99,88,30.02,29.92,14,3,14,0.30
2013-6-4,82.4,77.7,74.7,81.0,77.1,48.4,99,99,89,30.04,29.96,14,3,14,0.20
2013-6-5,84.2,78.1,74.5,80.1,76.2,35.6,99,94,73,30.11,29.90,17,6,17,0.19
2013-6-6,81.0,76.2,74.1,80.4,75.9,73.8,99,99,98,29.90,29.71,29,10,29,3.20
2013-6-7,89.6,79.7,72.9,81.3,76.5,72.5,99,91,64,29.99,29.81,15,3,15,0.00
2013-6-8,90.5,78.2,71.8,84.9,76.3,71.4,99,95,69,30.12,29.98,19,3,19,2.31
2013-6-9,90.9,79.4,72.5,83.3,76.9,72.1,99,93,60,30.11,30.02,16,4,16,0.06
2013-6-10,94.8,81.1,74.7,82.4,77.1,71.8,99,89,56,30.11,30.02,18,4,18,0.15
2013-6-11,92.5,81.9,75.9,83.7,77.4,73.8,99,88,58,30.11,30.02,14,3,14,0.01
2013-6-12,97.5,82.1,73.4,81.3,75.7,68.7,99,84,46,30.11,30.02,32,3,32,0.48
2013-6-13,95.2,82.4,73.2,84.6,76.1,71.2,99,84,50,30.07,29.93,11,2,11,0.01
2013-6-14,91.8,82.9,75.4,81.9,76.0,71.2,99,82,56,29.98,29.90,13,3,13,0.00
2013-6-15,93.7,81.7,76.1,82.8,77.9,75.2,99,90,60,30.07,29.94,18,2,18,0.32
2013-6-16,94.5,82.4,76.6,84.0,79.0,74.1,99,91,58,30.10,30.03,15,4,15,0.22
2013-6-17,95.4,84.8,76.6,84.0,77.4,72.9,99,81,52,30.09,30.00,11,3,11,0.00
2013-6-18,95.7,85.1,76.3,81.1,78.0,72.1,99,82,50,30.08,29.98,14,3,14,0.00
2013-6-19,94.8,82.2,75.6,84.7,78.6,72.9,99,90,59,30.06,29.98,13,3,13,0.56
2013-6-20,94.3,81.5,74.5,83.5,77.5,70.7,99,89,57,30.11,30.03,14,3,14,0.38
2013-6-21,92.5,79.4,73.2,83.3,75.2,72.1,99,88,58,30.13,30.05,16,3,16,0.12
2013-6-22,92.8,80.2,72.9,81.1,74.2,64.0,99,85,42,30.14,30.05,11,3,11,0.18
2013-6-23,94.1,79.8,74.8,81.1,75.8,68.5,99,90,45,30.16,30.07,11,3,11,0.18
2013-6-24,93.0,82.7,75.0,80.8,75.2,67.1,99,81,46,30.19,30.06,11,4,11,0.00
2013-6-25,94.1,83.1,75.4,79.9,74.8,66.0,99,79,42,30.16,30.02,17,4,17,0.00
2013-6-26,90.9,79.5,73.2,80.8,76.7,72.9,99,92,62,30.09,30.02,60,3,60,0.45
2013-6-27,93.2,79.8,72.1,81.3,75.2,71.8,99,88,54,30.07,29.97,16,3,16,0.19
2013-6-28,93.6,83.5,75.4,83.1,77.4,72.7,99,84,55,30.01,29.87,13,4,13,0.07
2013-6-29,92.3,81.6,77.4,83.5,78.1,75.0,99,91,60,29.91,29.83,17,3,17,0.28
2013-6-30,90.7,80.2,75.4,85.1,78.5,75.0,99,95,71,29.92,29.83,20,5,20,0.35
2013-7-1,79.5,75.5,73.6,79.2,75.2,73.2,99,99,99,30.02,29.87,17,5,17,0.97
2013-7-2,90.0,77.5,73.6,82.6,75.8,73.2,99,95,64,30.11,29.99,23,4,23,0.72
2013-7-3,88.5,77.2,73.8,81.5,76.0,73.4,99,97,70,30.14,30.05,17,5,17,0.78
2013-7-4,89.6,78.3,73.6,81.9,76.5,72.0,99,95,68,30.16,30.08,19,5,19,0.17
2013-7-5,89.8,78.4,73.9,81.1,76.6,73.4,99,95,64,30.16,30.07,26,5,26,0.37
2013-7-6,91.8,82.1,74.3,82.0,76.3,68.7,99,85,49,30.13,30.02,16,5,16,0.05
2013-7-7,91.8,83.0,75.6,81.7,76.4,71.4,99,82,55,30.15,30.03,20,5,20,0.00
2013-7-8,91.8,81.5,74.7,81.0,76.9,69.8,99,88,51,30.17,30.09,23,4,23,0.21
2013-7-9,93.6,82.4,74.3,80.4,74.8,65.1,99,81,41,30.19,30.06,15,3,15,0.01
2013-7-10,92.3,80.5,74.1,79.9,76.0,69.8,99,88,50,30.11,29.98,11,2,11,0.06
2013-7-11,92.5,82.1,75.2,79.7,75.8,72.0,99,83,56,30.04,29.95,13,3,13,0.00
2013-7-12,91.2,80.6,75.4,82.6,77.3,72.9,99,91,57,29.98,29.91,13,2,13,0.43
2013-7-13,86.9,78.7,74.5,81.7,77.0,74.1,99,95,71,30.01,29.92,60,3,60,0.08
2013-7-14,91.2,78.2,73.6,83.5,75.8,73.2,99,93,61,30.09,29.96,13,5,13,0.06
2013-7-15,92.3,80.0,73.9,79.0,74.6,68.9,99,86,48,30.12,30.00,21,4,21,0.05
2013-7-16,88.2,77.5,74.3,80.1,75.7,70.5,99,95,60,30.16,30.07,28,5,28,0.11
2013-7-17,89.2,77.4,73.4,82.0,75.1,73.0,99,94,61,30.17,30.08,27,5,27,0.33
2013-7-18,85.6,77.3,72.1,80.1,75.4,71.8,99,94,74,30.14,30.06,11,4,11,0.00
2013-7-19,88.0,77.5,72.7,81.5,76.1,72.3,99,96,75,30.14,30.07,13,4,13,0.13
2013-7-20,93.6,78.5,72.7,84.9,76.7,72.3,99,95,65,30.14,30.03,26,3,26,0.01
2013-7-21,93.9,82.8,73.9,83.1,77.6,73.6,99,86,59,30.14,30.05,12,3,12,0.00
2013-7-22,94.1,84.1,76.5,84.2,78.8,76.1,99,86,60,30.16,30.08,14,3,14,0.00
2013-7-23,92.5,83.8,77.0,83.7,77.0,71.8,99,82,53,30.12,29.99,14,3,14,0.00
2013-7-24,92.7,83.9,76.8,81.7,77.1,72.1,99,82,52,30.04,29.93,14,4,14,0.00
2013-7-25,91.4,83.8,78.3,82.4,78.7,74.1,99,86,63,30.03,29.91,14,5,14,0.04
2013-7-26,94.5,84.8,75.4,84.7,78.3,71.6,99,83,52,30.04,29.96,13,3,13,1.22
2013-7-27,96.3,85.7,77.7,83.5,76.9,70.9,99,78,45,30.02,29.92,11,3,11,0.00
2013-7-28,94.3,82.3,76.6,83.5,77.8,74.3,99,88,55,30.09,29.96,13,2,13,0.02
2013-7-29,95.9,82.7,74.7,80.6,75.1,67.8,99,81,43,30.17,30.04,15,2,15,0.00
2013-7-30,94.8,82.5,75.4,82.4,76.6,70.5,99,85,48,30.19,30.07,19,3,19,0.06
2013-7-31,95.7,82.2,76.6,83.1,77.3,67.3,99,88,40,30.16,30.01,11,3,11,0.61
2013-8-1,93.6,82.9,76.3,80.6,76.5,70.9,99,83,49,30.08,29.96,12,3,12,0.00
2013-8-2,96.6,83.4,75.4,81.0,76.8,69.8,99,83,47,30.07,29.96,11,3,11,0.00
2013-8-3,95.4,83.5,77.4,82.8,78.0,73.4,99,86,52,30.12,30.02,14,3,14,0.00
2013-8-4,90.5,83.4,77.9,84.4,80.0,77.5,99,90,71,30.11,30.02,13,2,13,0.08
2013-8-5,96.1,85.6,77.7,85.5,79.0,75.7,99,82,55,30.06,29.95,14,2,14,0.00
2013-8-6,94.8,83.5,75.6,84.7,79.9,73.6,99,90,51,30.01,29.91,17,2,17,0.14
2013-8-7,94.1,82.1,75.4,82.8,77.6,73.6,99,88,56,29.98,29.90,13,3,13,0.33
2013-8-8,93.9,82.5,76.6,82.6,76.8,68.5,99,85,46,30.04,29.93,18,4,18,0.01
2013-8-9,92.8,80.3,74.7,81.9,76.2,70.3,99,89,49,30.08,29.98,16,3,16,0.39
2013-8-10,94.1,83.1,73.9,81.9,76.0,68.9,99,82,46,30.14,30.04,15,4,15,0.01
2013-8-11,94.5,85.0,75.4,81.9,76.8,70.0,99,79,46,30.16,30.05,14,4,14,0.00
2013-8-12,93.9,84.9,76.3,82.2,76.0,65.5,99,78,43,30.15,30.01,11,3,11,0.00
2013-8-13,95.4,85.0,75.7,81.3,76.2,66.4,99,78,40,30.07,29.94,13,3,13,0.00
2013-8-14,94.1,85.4,78.4,82.6,77.7,70.0,99,80,49,30.03,29.23,13,3,13,0.00
2013-8-15,89.4,81.2,76.5,80.6,77.7,74.3,99,90,63,30.07,29.97,15,3,15,0.07
2013-8-16,93.9,84.1,77.9,82.9,77.8,71.2,99,84,51,30.07,29.96,14,2,14,0.02
2013-8-17,94.3,80.3,75.6,83.5,77.7,74.5,99,93,57,30.09,29.99,18,3,18,0.31
2013-8-18,92.1,81.0,74.7,83.5,77.4,70.5,99,90,53,30.13,29.99,19,4,19,0.40
2013-8-19,93.2,80.5,73.9,84.0,76.8,73.6,99,90,55,30.09,29.97,19,4,19,0.06
2013-8-20,92.1,79.9,74.5,84.0,77.3,74.1,99,93,58,30.09,30.00,20,3,20,0.24
2013-8-21,93.7,81.3,76.5,81.9,77.5,70.9,99,90,51,30.11,29.99,24,4,24,0.12
2013-8-22,93.6,79.8,74.8,82.4,77.3,74.5,99,93,56,30.09,29.97,24,4,24,0.52
2013-8-23,93.4,81.0,75.6,83.3,76.8,69.8,99,89,51,30.04,29.96,11,3,11,0.15
2013-8-24,95.4,81.1,75.2,83.3,76.6,72.7,99,88,51,30.13,30.01,18,3,18,0.79
2013-8-25,90.0,79.5,74.1,82.9,76.8,72.1,99,92,68,30.16,30.07,19,4,19,0.01
2013-8-26,93.9,81.3,74.5,81.5,75.9,70.5,99,86,51,30.16,30.01,14,3,14,0.00
2013-8-27,89.2,79.5,73.9,81.1,75.9,71.4,99,90,59,30.07,29.98,20,4,20,0.09
2013-8-28,94.8,79.5,72.9,79.2,74.6,66.4,99,87,40,30.07,29.99,24,3,24,0.00
2013-8-29,94.1,81.6,74.1,82.2,75.1,68.5,99,84,45,30.06,29.94,14,2,14,0.09
2013-8-30,92.7,82.2,75.6,84.4,77.8,73.0,99,88,59,30.02,29.91,12,2,12,0.11
2013-8-31,94.1,83.4,75.7,83.1,76.5,71.8,99,82,52,30.01,29.91,11,2,11,0.02
2013-9-1,95.7,81.7,74.8,81.3,76.1,69.8,99,85,46,30.01,29.93,15,3,15,0.00
2013-9-2,91.4,79.5,74.7,82.2,76.8,73.6,99,92,62,30.05,29.96,18,3,18,0.11
2013-9-3,91.4,81.2,75.9,82.2,77.1,71.6,99,89,56,30.06,29.95,60,2,60,0.59
2013-9-4,92.1,80.4,74.1,80.6,76.5,70.9,99,90,57,30.10,29.97,15,3,15,0.13
2013-9-5,94.8,81.5,75.0,81.5,75.1,68.7,99,83,47,30.11,29.99,21,3,21,0.01
2013-9-6,95.4,81.7,72.9,82.8,76.2,71.1,99,86,49,30.07,29.93,33,3,33,1.20
2013-9-7,95.2,80.0,72.7,80.1,74.4,66.9,99,86,44,30.04,29.92,17,3,17,0.04
2013-9-8,94.8,81.9,72.9,79.3,74.1,68.5,99,80,45,29.98,29.87,9,3,9,0.01
2013-9-9,94.5,83.2,75.0,79.9,74.5,65.8,99,78,42,30.04,29.93,14,4,14,0.00
2013-9-10,91.8,83.0,75.4,80.1,72.5,62.1,99,74,39,30.09,29.98,17,5,17,0.00
2013-9-11,89.8,80.8,74.8,80.1,74.1,68.0,99,82,51,30.08,29.98,23,6,23,0.04
2013-9-12,89.8,78.6,73.4,81.3,75.5,72.5,99,91,60,30.04,29.90,13,3,13,1.02
2013-9-13,92.8,79.9,71.8,84.2,75.5,71.2,99,89,52,29.93,29.83,14,2,14,0.32
2013-9-14,97.5,83.7,74.1,83.7,75.0,67.6,99,79,40,29.99,29.85,16,2,16,0.18
2013-9-15,93.2,79.0,72.1,81.3,75.3,71.8,99,90,54,30.11,29.96,26,4,26,0.21
2013-9-16,90.7,78.3,73.8,82.0,75.9,73.2,99,94,62,30.07,29.99,21,4,21,0.45
2013-9-17,90.9,78.6,73.0,81.0,75.3,71.8,99,91,56,30.06,29.95,20,4,20,0.13
2013-9-18,90.9,79.3,73.8,81.0,76.1,71.8,99,91,55,30.05,29.96,21,4,21,0.15
2013-9-19,90.3,79.7,73.9,80.6,76.2,71.4,99,90,57,30.06,29.97,16,4,16,0.01
2013-9-20,90.7,81.3,73.6,77.9,72.5,64.8,99,77,46,30.04,29.90,12,4,12,0.00
2013-9-21,91.8,80.2,71.6,76.8,72.3,66.2,99,79,44,29.96,29.79,9,3,9,0.00
2013-9-22,91.8,81.9,74.7,81.7,76.2,72.5,99,85,56,29.88,29.78,18,4,18,0.00
2013-9-23,82.2,77.9,75.7,81.9,77.5,75.2,99,99,99,29.98,29.85,10,3,10,1.56
2013-9-24,76.6,75.6,74.8,76.3,75.3,74.3,99,99,99,30.00,29.88,12,3,12,1.90
2013-9-25,79.9,75.1,71.1,79.5,74.7,70.7,99,99,98,29.96,29.81,16,3,16,1.78
2013-9-26,93.4,82.5,75.6,85.1,77.2,70.7,99,86,50,29.88,29.82,16,4,16,0.01
2013-9-27,89.4,78.6,71.2,76.5,72.9,69.4,99,84,54,29.97,29.87,14,3,14,0.00
2013-9-28,90.7,79.4,71.8,77.2,73.2,66.0,99,84,46,30.01,29.91,17,4,17,0.00
2013-9-29,90.7,79.8,71.1,76.5,70.0,59.4,99,76,37,30.01,29.89,9,3,9,0.00
2013-9-30,93.2,80.5,71.1,76.6,71.1,61.7,99,77,37,30.01,29.91,13,3,13,0.00
2013-10-1,91.0,81.3,72.7,77.9,72.2,64.8,99,77,44,30.06,29.96,13,5,13,0.00
2013-10-2,88.9,80.5,72.5,77.2,73.1,69.3,99,80,53,30.06,29.96,16,5,16,0.00
2013-10-3,90.7,80.4,73.4,77.7,73.6,67.8,99,82,49,30.08,29.97,11,4,11,0.00
2013-10-4,92.3,81.4,74.7,78.1,73.0,65.1,99,79,42,30.10,30.00,11,3,11,0.00
2013-10-5,91.6,81.3,73.0,76.8,72.1,62.2,99,77,40,30.07,29.94,14,4,14,0.00
2013-10-6,93.4,81.1,73.0,78.6,73.5,64.6,99,81,41,30.00,29.88,11,3,11,0.00
2013-10-7,88.7,79.0,73.8,82.4,76.5,73.4,99,93,73,29.90,29.78,19,5,19,0.25
2013-10-8,88.9,81.5,75.4,79.7,75.4,70.2,99,83,56,29.96,29.82,14,4,14,0.00
2013-10-9,82.2,75.8,69.8,75.0,72.7,69.4,99,91,70,30.05,29.95,11,3,11,0.01
2013-10-10,88.0,75.8,66.6,72.5,68.1,62.4,99,80,45,30.08,29.97,10,2,10,0.00
2013-10-11,90.9,77.4,67.8,72.7,66.7,56.5,99,74,34,30.07,29.95,10,2,10,0.00
2013-10-12,91.0,78.0,67.5,70.9,64.3,53.8,99,68,29,30.07,29.98,9,2,9,0.00
2013-10-13,90.1,77.0,67.1,72.3,63.4,48.6,99,68,24,30.09,29.98,8,2,8,0.00
2013-10-14,89.8,77.1,65.7,72.1,65.1,57.0,99,70,35,30.06,29.93,9,2,9,0.00
2013-10-15,89.8,76.5,67.3,73.2,68.6,60.3,99,80,38,30.02,29.90,8,2,8,0.00
2013-10-16,89.8,76.2,70.2,77.2,71.1,68.0,99,86,53,29.99,29.91,8,2,8,0.00
2013-10-17,93.6,78.5,69.6,76.3,70.0,61.7,99,79,38,30.00,29.91,9,2,9,0.00
2013-10-18,92.8,80.0,71.6,77.9,72.7,66.7,99,81,44,30.00,29.90,9,2,9,0.00
2013-10-19,92.1,80.9,73.9,78.1,74.7,68.2,99,84,48,29.97,29.88,11,2,11,0.00
2013-10-20,95.0,81.5,74.3,83.7,75.0,70.7,99,83,50,29.98,29.89,8,1,8,0.00
2013-10-21,92.7,80.5,73.9,81.5,74.3,68.0,99,84,48,30.02,29.93,10,2,10,0.01
2013-10-22,90.1,79.2,72.1,81.0,74.7,71.8,99,88,61,29.98,29.84,16,3,16,0.27
2013-10-23,84.2,75.2,69.6,74.7,65.1,44.6,99,75,31,30.03,29.83,13,3,13,0.02
2013-10-24,76.3,68.0,62.6,60.3,54.5,47.1,89,63,49,30.20,30.01,11,4,11,0.00
2013-10-25,84.2,69.8,57.9,65.1,55.3,43.3,99,67,25,30.27,30.15,11,2,11,0.00
2013-10-26,85.8,69.7,59.0,63.5,57.0,39.2,99,70,23,30.24,24.60,9,2,9,0.00
2013-10-27,83.1,58.6,56.7,64.4,34.9,-99.9,99,62,29,30.15,30.06,11,-130,11,0.00
2013-10-28,87.8,72.0,60.3,65.5,58.3,48.2,99,68,27,30.21,30.11,10,2,10,0.00
2013-10-29,86.2,74.0,63.7,67.8,63.1,54.1,99,73,36,30.25,30.12,14,3,14,0.00
2013-10-30,85.8,74.8,66.2,72.5,65.7,59.2,99,76,43,30.24,30.09,15,4,15,0.00
2013-10-31,87.3,75.5,65.8,72.0,66.8,60.1,99,78,42,30.14,29.98,17,3,17,0.00
2013-11-1,87.3,76.7,69.1,77.2,71.7,67.8,99,86,56,30.02,29.90,17,3,17,0.00
2013-11-2,79.2,72.2,66.0,77.4,70.3,65.1,99,94,66,30.00,29.85,16,2,16,0.24
2013-11-3,80.1,68.6,60.6,65.7,50.5,22.3,99,61,13,30.13,29.98,15,4,15,0.01
2013-11-4,81.1,69.3,59.0,64.8,58.5,50.9,93,71,42,30.17,30.08,24,6,24,0.00
2013-11-5,82.6,74.2,65.3,72.0,67.8,64.4,99,82,59,30.15,30.05,22,7,22,0.01
2013-11-6,86.7,76.0,68.7,73.2,67.9,61.9,99,79,46,30.11,30.01,14,4,14,0.00
2013-11-7,85.3,73.8,66.4,73.6,68.4,64.4,99,85,54,30.08,29.98,8,2,8,0.00
2013-11-8,82.8,72.1,65.5,70.0,65.8,60.3,99,83,49,30.12,30.01,14,4,14,0.00
2013-11-9,83.7,73.2,64.4,68.9,65.5,62.6,96,78,55,30.17,30.08,14,5,14,0.00
2013-11-10,85.5,74.2,66.4,70.5,65.8,59.7,99,77,47,30.18,30.07,11,3,11,0.00
2013-11-11,84.6,74.1,67.5,70.0,66.9,62.1,99,80,47,30.17,30.07,11,3,12,0.00
2013-11-12,82.9,72.6,65.7,72.7,67.9,61.7,99,87,56,30.13,30.02,8,2,8,0.00
2013-11-13,70.0,63.6,54.3,62.1,52.3,48.4,85,67,56,30.32,30.02,20,7,20,0.00
2013-11-14,77.5,64.4,52.5,59.5,53.5,49.1,96,71,39,30.31,30.18,20,6,20,0.00
2013-11-15,77.4,69.3,62.4,67.5,63.3,59.2,95,82,60,30.19,30.06,12,4,12,0.01
2013-11-16,78.3,73.2,69.6,73.9,68.4,65.7,99,85,69,30.14,30.03,14,5,14,0.04
2013-11-17,87.8,76.8,69.8,73.8,68.1,64.4,97,77,47,30.10,30.00,13,3,13,0.00
2013-11-18,90.0,76.9,68.7,75.2,70.3,64.9,99,82,47,30.05,29.95,10,1,10,0.00
2013-11-19,87.1,76.0,70.5,76.3,70.6,63.0,99,84,57,29.98,29.88,54,2,54,0.00
2013-11-20,84.9,73.8,66.6,72.9,69.0,65.1,99,86,61,30.10,29.97,11,3,11,0.00
2013-11-21,86.0,75.5,70.3,75.7,71.9,68.9,99,90,57,30.19,30.07,17,6,17,0.00
2013-11-22,85.1,75.6,68.4,75.4,69.1,64.2,99,82,52,30.19,30.08,17,4,17,0.00
2013-11-23,89.4,70.9,63.5,71.2,65.0,-99.9,99,85,39,30.19,29.96,11,-2,11,0.00
2013-11-24,74.3,67.0,60.4,69.3,62.8,55.6,99,87,69,30.23,30.03,21,4,21,0.00
2013-11-25,78.3,69.3,61.0,66.4,59.1,55.2,94,71,47,30.24,29.89,23,9,23,0.00
2013-11-26,84.0,74.5,68.0,76.3,71.6,66.4,99,91,67,30.07,29.80,24,8,24,0.00
2013-11-27,73.8,66.1,50.5,72.9,59.2,44.2,99,79,54,30.23,29.77,21,8,21,0.01
2013-11-28,68.4,53.1,39.2,51.1,42.8,34.2,91,70,41,30.37,30.23,15,4,15,0.00
2013-11-29,73.9,61.6,51.8,58.1,53.9,50.5,99,78,46,30.37,30.27,15,5,15,0.00
2013-11-30,76.5,64.6,54.9,65.1,59.8,52.0,99,86,64,30.33,30.19,15,4,15,0.00
2013-12-1,79.5,66.5,60.8,68.2,63.5,60.4,99,91,62,30.21,30.01,10,3,10,0.00
2013-12-2,71.8,65.4,60.1,67.3,61.9,59.0,99,89,66,30.01,29.88,8,1,8,0.00
2013-12-3,78.6,69.1,61.5,68.2,64.4,60.6,99,86,62,30.01,29.91,14,2,14,0.00
2013-12-4,85.1,72.3,63.7,73.9,67.5,63.3,99,87,52,30.10,29.99,11,2,11,0.00
2013-12-5,83.3,72.3,64.4,73.8,66.2,62.1,99,84,52,30.20,30.08,12,2,12,0.00
2013-12-6,86.5,73.9,65.8,77.5,68.6,65.3,99,86,50,30.20,30.08,16,3,16,0.00
2013-12-7,86.0,73.7,65.3,75.4,65.9,55.2,99,81,36,30.26,30.14,9,2,9,0.00
2013-12-8,84.7,73.6,64.8,75.7,66.6,57.7,99,82,40,30.24,30.10,14,3,14,0.00
2013-12-9,87.6,73.6,66.0,76.6,67.7,59.7,99,85,41,30.20,30.09,14,2,14,0.00
2013-12-10,86.7,72.8,62.1,76.6,67.4,59.7,99,86,41,30.19,30.10,11,2,11,0.00
2013-12-11,86.2,72.6,64.8,68.9,66.4,61.5,99,83,46,30.27,30.15,13,3,13,0.00
2013-12-12,75.6,65.7,52.3,67.8,54.8,27.0,99,74,25,30.32,30.19,12,4,12,0.00
2013-12-13,77.5,63.3,50.4,60.3,50.0,32.0,89,64,37,30.30,30.11,17,5,17,0.00
2013-12-14,83.8,72.9,62.8,73.0,67.7,59.9,99,85,57,30.13,29.97,19,6,19,0.00
2013-12-15,78.8,71.6,61.0,75.0,67.0,57.9,99,87,55,30.15,29.93,15,5,15,0.00
2013-12-16,70.0,59.0,50.0,59.9,49.9,39.9,99,75,36,30.26,30.13,9,2,9,0.00
2013-12-17,77.2,58.2,45.0,53.1,48.3,43.3,99,73,34,30.28,30.16,9,2,9,0.00
2013-12-18,75.9,59.2,47.7,50.7,41.0,21.0,93,60,13,30.32,30.22,11,2,11,0.00
2013-12-19,78.3,62.0,48.4,57.6,50.4,41.2,98,70,28,30.29,30.17,13,3,13,0.00
2013-12-20,83.3,71.5,59.9,67.3,62.5,56.3,91,75,52,30.22,30.09,17,5,17,0.00
2013-12-21,86.0,74.8,68.2,73.2,68.3,63.5,99,82,49,30.16,30.02,22,5,22,0.00
2013-12-22,70.2,69.9,69.8,69.8,69.5,69.4,99,99,99,30.10,30.08,8,4,8,0.00
2013-12-25,-200.0,0.0,200.0,-99.9,-99.9,-99.9,0,0,100,0.00,40.00,0,-999,0,0.00
2013-12-30,-200.0,0.0,200.0,-99.9,-99.9,-99.9,0,0,100,0.00,40.00,0,-999,0,0.00
2013-12-31,79.9,72.1,60.0,64.8,60.5,53.4,79,67,60,30.24,29.75,14,11,25,27.47
2014-1-1,79.9,70.1,60.0,64.8,59.4,53.4,79,69,60,30.24,29.75,14,10,25,29.79
2014-1-2,82.9,71.9,62.6,73.8,69.6,62.3,99,93,66,30.00,29.86,11,3,22,0.00